Regional Weather Roundup
Issued by NWS Portland, ME

Current Version | Previous Version | Text Only | Print | Product List | Glossary Off
Versions: 1 2 3 4 5 6 7 8 9 10 11 12 13 14 15 16 17 18 19 20 21 22 23 24 25 26 27 28 29 30 31 32 33 34 35 36 37 38 39 40 41 42 43 44 45 46 47 48 49 50
000 ASUS41 KGYX 231410 RWRGYX WEATHER ROUNDUP FOR MAINE AND NEW HAMPSHIRE NATIONAL WEATHER SERVICE GRAY ME 1000 AM EDT FRI JUN 23 2017 MEZ002-005-006-010-012-015-018-020-021-024-026-027-029-231500- MAINE CITY SKY/WX TMP DP RH WIND PRES REMARKS PORTLAND CLOUDY 63 59 87 E3 29.80F SANFORD MOSUNNY 71 62 73 NE3 29.79F BAR HARBOR CLOUDY 61 58 90 SE3 29.82F WISCASSET CLOUDY 65 62 90 SE6 29.81F ROCKLAND LGT RAIN 60 58 92 CALM 29.82R FRYEBURG LGT RAIN 62 61 96 CALM 29.81F LEWISTONAUBURN LGT RAIN 64 61 90 S3 29.80F AUGUSTA LGT RAIN 64 60 87 SE5 29.80F WATERVILLE LGT RAIN 63 61 93 VRB3 29.76F BANGOR CLOUDY 65 59 81 S6 29.81F GREENVILLE N/A 58 56 93 CALM 29.77F MILLINOCKET CLOUDY 64 57 78 S5 29.79F HOULTON CLOUDY 65 57 75 S5 29.78F PRESQUE ISLE CLOUDY 64 56 75 SE8 29.78F FRENCHVILLE CLOUDY 62 53 72 SE7 29.76F CARIBOU CLOUDY 66 54 65 SE9 29.77F $$ NHZ002-005-008-009-011-012-014-231500- NEW HAMPSHIRE CITY SKY/WX TMP DP RH WIND PRES REMARKS PORTSMOUTH CLOUDY 72 63 72 CALM 29.76F ROCHESTER CLOUDY 72 61 68 CALM 29.77F NASHUA CLOUDY 73 66 78 CALM 29.77F MANCHESTER CLOUDY 73 62 68 S6 29.76F CONCORD CLOUDY 72 63 73 CALM 29.78F LACONIA CLOUDY N/A N/A N/A NE6 29.79F PLYMOUTH CLOUDY 62 60 91 CALM 29.79F BERLIN LGT RAIN 61 57 87 CALM 29.81S FOG WHITEFIELD RAIN 62 59 90 E3 29.80F FOG JAFFREY CLOUDY 71 66 84 SW6 29.80F KEENE CLOUDY 69 64 84 W5 29.78F LEBANON CLOUDY 68 64 87 CALM 29.77F MT WASHINGTON LGT RAIN 52 52 100 W40 N/A VSB 0 $$ VTZ005-007-008-231500- VERMONT CITY SKY/WX TMP DP RH WIND PRES REMARKS ST JOHNSBURY N/A 62 62 100 MISG 29.75F MONTPELIER N/A 63 63 100 CALM 29.80F BURLINGTON PTSUNNY 71 68 90 S8 29.71F $$ MAZ007-012-024-CTZ003-RIZ002-NYZ038-NYZ072-231500- SOUTHERN NEW ENGLAND AND NY CITY SKY/WX TMP DP RH WIND PRES REMARKS BOSTON CLOUDY 73 68 84 S7 29.79F WORCESTER CLOUDY 75 65 70 SW10 29.82F NANTUCKET CLOUDY 65 64 97 SW13 29.86F PROVIDENCE CLOUDY 81 73 76 S9 29.81F HARTFORD PTSUNNY 79 72 79 S9 29.78F ALBANY CLOUDY 76 66 71 S7 29.74F NEW YORK CITY CLOUDY 83 73 72 S10 29.78F $$ ANZ081-ANZ082-ANZ150-NHZ014-MEZ023>029-231500- COASTAL MARINE OBSERVATIONS STATION/POSITION TIME TEMP WIND PRES WAVE AIR SEA DIR/SP/G HT/PER (UTC) (F) (DEG/KT/KT) (MB) (FT/S) MATINICUS ROCK 1300 56 120/ 14/ 14 1009.1F ISLE OF SHOALS 1300 63 180/ 9/ 9 1008.9R JEFFREYS LEDGE 1306 59 N/A 2/ 3 CASHES LEDGE BUO 1250 63 59 1009.9 2/ 6 GEORGES BANK BUO 1250 56 53 1013.1 3/ 6 $$ .............KEY.............. WCI - WIND CHILL TC - TEMPERATURE IN CELSIUS VSB - VISIBILITY IN MILES HX - HEAT INDEX FAIR- INDICATES FEW OR NO CLOUDS BELOW 12,000 FT, WITH NO SIGNIFICANT WEATHER AND/OR OBSTRUCTIONS TO VISIBILITY.

USA.gov is the U.S. government's official web portal to all federal, state and local government web resources and services.